Weather Roundup
Issued by NWS

Home | Current Version | Previous Version | Graphics & Text | Print | Product List | Glossary Off
Versions: 1 2 3 4 5 6 7 8 9 10 11 12 13 14 15 16 17 18 19 20 21 22 23 24 25 26 27 28 29 30 31 32 33 34 35 36 37 38 39 40 41 42 43 44 45 46 47 48 49 50

000
NZUS93 KARX 200459
HRRWXR

CURRENT HOURLY OBSERVATIONS ACROSS
MUCH OF THE UPPER MISSISSIPPI VALLEY
NATIONAL WEATHER SERVICE LA CROSSE WI
1200 AM CDT SUN APR 20 2014


...SOUTHEAST MINNESOTA...


CITY           SKY/WX    TMP DP  RH WIND       PRES   REMARKS
ROCHESTER      CLOUDY    60  45  57 S14       30.03S
ROCHESTER/MAYO CLOUDY    63  42  46 SE10G17   30.02S
WINONA           N/A    N/A N/A N/A MISG        N/A
AUSTIN         CLOUDY    63  45  51 S9        30.03R
ALBERT LEA     CLOUDY    64  45  48 S10       30.01S
DODGE CENTER   CLOUDY    63  46  55 S15       30.01F
PRESTON        CLOUDY    61  44  54 S13G20    30.05F
OWATONNA       DRIZZLE   55  52  88 CALM      30.02R
FARIBAULT      CLOUDY    57  52  82 CALM      30.02S HAZE
$$

...ELSEWHERE IN MINNESOTA...


CITY           SKY/WX    TMP DP  RH WIND       PRES   REMARKS
MINNEAPOLIS    LGT RAIN  52  52 100 CALM      30.02S FOG
INTNL FALLS    CLEAR     44  36  73 W6        29.94R
DULUTH         CLEAR     33  29  85 SE3       29.99F
RED WING       CLOUDY    54  52  94 CALM      30.00S
REDWOOD FALLS  CLOUDY    54  45  71 S5        30.01S
MANKATO        CLOUDY    55  50  82 N6        30.02S
WORTHINGTON    CLOUDY    55  43  62 NE3       30.05S
FAIRMONT       CLOUDY    55  48  76 MISG      30.03F
$$

...SOUTHWEST WISCONSIN...


CITY           SKY/WX    TMP DP  RH WIND       PRES   REMARKS
LA CROSSE      MOCLDY    62  39  42 S13       30.06S
PRAIRIE DU CHI CLOUDY    63  34  34 SE3       30.11S
BOSCOBEL       CLOUDY    64  33  31 S10       30.12F
LONE ROCK      NOT AVBL
PLATTEVILLE    CLOUDY    56  37  47 SE12      30.16S
FORT MC COY    CLOUDY    64  32  30 S15G22    30.09S
VIROQUA        CLOUDY    60  36  41 S15       30.11S
WIS DELLS      CLOUDY    57  34  41 S7        30.14F
$$

...ELSEWHERE IN WISCONSIN...


CITY           SKY/WX    TMP DP  RH WIND       PRES   REMARKS
MILWAUKEE      PTCLDY    49  35  58 S12       30.24F
MADISON        MOCLDY    54  39  57 S13       30.17F
GREEN BAY      CLOUDY    50  38  63 S14       30.16F
EAU CLAIRE     CLOUDY    59  41  51 SE3       30.02S
BLACK RVR FLS  MOCLDY    64  33  32 S8G16     30.06S
MEDFORD        CLOUDY    53  40  61 SE9       30.06F
WAUSAU         LGT RAIN  53  38  56 SE10      30.08F
WIS RAPIDS     CLOUDY    60  35  39 S9G17     30.11F
MARSHFIELD     CLOUDY    57  38  48 S9        30.07F
RICE LAKE      RAIN      49  45  86 SE6       30.04R
$$

...NORTHEAST IOWA...


CITY           SKY/WX    TMP DP  RH WIND       PRES   REMARKS
WATERLOO       CLOUDY    63  42  46 S15       30.08S
DUBUQUE        CLOUDY    57  36  45 SE13      30.15S
DECORAH        CLOUDY    61  41  48 S12G17    30.08R
MASON CITY     CLOUDY    60  47  61 S9        30.04F
CHARLES CITY   CLOUDY    63  45  51 S10       30.07S
OELWEIN        CLOUDY   N/A N/A N/A S13       30.10S
$$

...ELSEWHERE IN IOWA...


CITY           SKY/WX    TMP DP  RH WIND       PRES   REMARKS
DES MOINES     CLOUDY    66  44  45 S10       30.07F
IOWA CITY      PTCLDY    54  40  59 SE6       30.15R
FORT DODGE     CLOUDY    66  45  45 S15       30.03F
MARSHALLTOWN   CLOUDY    64  44  48 S10       30.07F
CEDAR RAPIDS   MOCLDY    58  40  51 S7        30.12R
$$

...NORTHERN ILLINOIS...


CITY           SKY/WX    TMP DP  RH WIND       PRES   REMARKS
CHICAGO-OHARE  PTCLDY    54  35  48 SE12      30.23S
DUPAGE         PTCLDY    54  37  52 SE9       30.22S
CHICAGO-MIDWAY MOCLDY    56  35  45 SE10      30.24S
MOLINE         CLEAR     56  36  47 S10       30.16R
ROCKFORD       PTCLDY    53  37  54 SE9       30.23R
STERLING       PTCLDY    54  36  50 SE8       30.19R
PEORIA         CLEAR     59  33  37 SE7       30.19F
$$

NOTE: "FAIR" INDICATES FEW OR NO CLOUDS BELOW 12,000 FEET WITH NO
SIGNIFICANT WEATHER AND/OR OBSTRUCTIONS TO VISIBILITY. WIND
SPEEDS ARE IN MILES-PER-HOUR.



USA.gov is the U.S. government's official web portal to all federal, state and local government web resources and services.